Wind_Speed
36 40 44 47 47 45 39 34 31 29 27 23 20 16 13 10 7 5 4 3 3 4 5 6 7 8 10 12 13 14 16 17 17 17 17 16 15 14 13 13 12 11 11 10 11 11 11 11 10 10 8 7 8 8 7 6 7 7 8 8 12 19 15 5 9 6 11 12 16 13 10 10 9 11 10 9 11 13 12 9 11 10 9 11 10 12 18 15
37 41 44 47 47 43 37 32 30 27 23 19 16 13 11 9 7 4 3 1 0 1 2 4 5 7 9 11 12 14 16 16 16 17 16 16 15 14 13 12 11 10 10 10 10 10 10 10 10 10 9 8 8 8 7 7 8 8 9 11 13 18 9 14 14 12 16 10 11 11 10 11 6 7 10 10 10 10 11 11 10 8 9 10 9 10 14 11
37 42 45 47 47 42 36 31 28 25 19 16 13 12 11 10 8 6 4 3 2 2 2 4 5 7 9 11 12 14 15 16 16 16 16 16 14 13 12 10 10 9 8 8 9 9 9 9 9 10 9 9 8 7 7 8 8 8 10 12 12 9 3 23 23 16 13 8 6 7 8 9 5 8 10 9 10 10 11 11 10 9 10 10 11 10 12 13
38 42 45 48 47 41 35 31 27 22 17 14 13 12 12 10 9 7 6 5 4 4 4 5 6 8 10 11 13 15 15 16 16 16 16 15 14 13 11 10 9 8 7 7 7 8 8 9 9 10 10 9 8 7 7 8 9 9 11 12 8 10 17 24 26 18 11 7 4 4 4 3 6 9 7 8 9 10 12 12 9 8 8 9 9 8 10 12
38 42 45 48 46 40 34 30 26 19 15 13 13 13 12 11 10 9 8 7 6 5 6 6 7 9 10 11 13 15 15 16 16 16 16 15 13 12 11 9 8 8 8 7 7 7 8 8 8 8 9 8 8 8 7 9 10 9 11 15 14 12 15 18 20 18 14 11 8 6 6 2 6 8 5 6 9 11 11 10 6 3 6 9 8 8 10 8
38 42 45 48 45 39 34 29 24 18 14 14 14 14 13 12 11 10 9 8 7 7 7 8 9 10 11 11 12 13 14 15 16 16 15 14 13 12 11 9 8 8 8 8 7 7 7 7 8 8 8 8 8 8 8 9 9 7 12 18 14 6 8 10 11 11 11 12 12 10 8 5 4 5 6 7 10 13 9 9 8 5 7 10 9 9 10 10
38 41 45 48 44 38 33 28 22 17 15 15 15 15 15 13 12 10 10 9 9 8 9 10 11 11 12 12 13 14 15 15 15 15 15 14 12 11 11 9 9 8 8 8 7 8 7 7 8 8 8 7 7 8 9 10 8 8 13 17 15 10 11 9 5 8 9 11 13 8 7 7 4 1 5 9 12 13 12 14 13 10 10 10 10 9 9 10
37 40 45 47 44 38 32 28 23 18 16 16 16 16 15 14 13 11 11 11 10 10 10 11 12 12 13 13 14 15 16 16 14 14 14 13 12 10 10 9 9 8 7 8 8 8 8 7 8 8 9 8 8 9 9 8 8 10 13 15 14 11 12 11 7 9 9 10 10 8 8 10 9 4 3 6 12 14 14 15 16 16 16 14 11 10 9 7
36 39 44 46 43 38 32 29 25 20 18 17 16 16 15 15 13 12 12 12 12 12 11 12 12 11 11 12 12 14 16 16 15 14 13 12 11 10 9 8 7 8 7 7 7 8 8 8 8 7 8 8 8 9 9 8 10 12 13 15 14 9 10 11 10 10 11 12 11 11 11 10 12 10 5 3 8 13 13 13 16 16 18 19 14 10 9 9
35 38 42 45 44 38 32 31 28 23 20 18 17 17 16 15 14 14 14 14 14 13 13 13 12 12 11 10 11 14 16 16 16 14 13 13 12 10 9 8 6 6 6 6 6 6 7 7 7 7 7 7 8 9 9 10 10 9 11 14 12 10 12 11 12 12 13 13 13 12 12 12 13 11 10 8 6 11 12 12 15 14 19 21 16 12 12 11
33 36 40 44 43 39 33 32 31 27 24 21 19 18 17 16 16 15 16 16 16 15 14 14 14 13 12 11 12 15 16 15 16 14 13 12 11 10 8 8 7 5 5 4 4 4 4 6 7 7 7 7 8 9 9 10 9 7 9 12 11 12 13 12 13 14 14 14 14 14 13 14 12 9 11 6 7 15 12 12 16 14 19 22 17 14 14 13
32 34 38 42 43 40 35 33 33 30 27 24 22 20 19 18 18 18 17 17 17 16 15 15 15 14 14 15 15 15 15 15 14 13 12 10 9 9 7 6 5 4 3 2 1 1 1 3 4 5 6 6 7 8 8 10 9 9 11 11 12 13 13 13 13 14 15 15 15 16 15 15 12 9 7 4 9 17 9 9 15 13 17 21 19 14 15 16
30 33 36 40 42 41 36 33 33 31 29 27 25 23 21 20 20 20 19 19 18 18 17 16 15 15 15 16 16 15 15 14 14 13 11 10 9 7 7 6 5 4 3 3 3 3 2 2 2 3 4 5 7 8 8 9 10 11 11 11 12 13 13 11 12 15 14 15 18 16 15 14 8 8 9 10 14 15 9 10 13 13 17 21 22 16 15 18
29 31 34 37 40 41 38 34 33 32 30 29 28 26 24 22 22 21 21 21 20 19 18 17 17 17 18 17 16 15 15 14 14 13 12 10 9 8 7 7 5 5 5 5 5 5 4 3 3 2 2 3 5 6 8 9 9 10 10 11 10 9 10 11 16 15 11 16 18 16 16 10 4 10 8 7 17 18 13 14 14 15 14 18 23 18 15 18
27 29 31 35 38 40 39 36 33 32 31 30 29 27 26 25 24 23 23 22 22 21 19 19 19 18 20 19 16 16 15 15 14 13 12 10 10 9 9 8 7 6 6 7 6 6 5 4 3 2 1 2 4 5 6 7 8 9 7 7 8 6 5 11 22 13 7 17 18 15 16 11 10 12 8 5 14 14 9 12 16 18 13 15 23 21 17 18
25 28 29 32 35 38 39 37 35 33 31 30 29 28 27 27 26 25 24 24 23 22 21 21 19 19 21 20 17 16 16 15 14 14 13 11 10 10 9 8 7 7 6 6 5 4 3 3 2 2 2 2 3 3 4 7 9 11 8 5 7 8 5 10 21 11 4 12 16 16 17 14 9 5 8 11 11 12 15 18 19 20 16 14 21 24 21 18
23 25 27 29 32 35 37 37 36 35 34 32 30 29 28 26 26 25 24 24 24 23 23 22 19 22 23 20 18 17 16 16 15 14 13 11 10 9 10 8 6 7 6 5 5 3 3 2 2 2 2 2 4 3 4 6 8 10 11 8 8 10 7 11 19 17 12 9 14 18 15 16 11 2 12 14 13 18 20 20 18 19 18 16 20 25 22 18
20 23 26 27 29 32 34 36 37 36 36 35 33 32 31 28 26 26 25 24 24 24 22 21 21 24 23 19 19 18 16 16 14 13 12 11 10 9 9 7 6 7 5 4 4 3 2 2 3 2 1 3 6 6 6 7 10 11 13 13 11 11 9 10 14 15 14 12 17 20 14 14 16 11 11 12 18 18 12 11 13 16 19 19 20 25 25 21
18 21 23 25 27 28 31 33 35 36 36 36 35 33 33 32 29 29 29 25 26 26 22 21 23 24 21 18 19 18 17 16 13 13 11 10 10 8 7 6 6 6 4 2 3 5 4 3 3 2 1 2 7 12 12 12 15 14 13 14 13 11 11 13 12 14 17 12 13 17 13 13 13 15 15 9 12 20 16 13 14 16 18 17 19 24 27 25
15 18 21 23 25 26 28 30 32 33 34 35 36 34 33 34 33 32 32 29 28 27 24 24 24 22 20 19 19 18 17 16 13 12 12 11 10 7 7 6 6 8 7 4 4 7 7 4 3 4 3 6 13 16 16 18 18 17 15 14 15 13 13 14 12 19 25 17 13 14 12 14 14 15 17 12 13 26 25 18 19 21 18 14 18 22 25 28
13 15 18 20 22 24 25 26 28 30 31 33 35 36 35 36 34 32 33 31 28 29 28 25 24 22 21 21 19 18 19 19 16 15 14 13 10 9 11 9 9 10 11 7 2 5 8 6 6 9 9 11 14 17 20 21 21 21 18 14 13 12 13 14 13 19 25 20 16 15 14 16 15 12 12 11 18 27 26 19 20 22 18 16 19 24 26 29
12 12 15 17 20 22 23 24 25 26 28 29 31 33 35 35 33 33 34 32 29 32 32 27 26 26 25 24 22 21 24 23 19 18 18 16 14 15 14 12 11 7 8 10 4 5 11 11 12 13 14 15 15 18 20 21 21 21 21 17 12 10 13 14 15 18 20 20 15 13 12 12 12 12 12 16 22 25 24 23 23 20 21 23 24 28 30 31
11 10 12 14 17 19 20 22 22 23 25 25 26 29 31 31 31 31 33 31 29 31 32 29 27 26 25 25 23 24 27 23 19 19 18 18 20 21 17 13 10 6 5 9 7 6 7 10 14 13 15 17 16 18 19 20 20 20 21 20 17 18 19 18 18 19 21 25 18 10 13 12 13 15 17 22 27 27 23 22 23 21 22 25 27 30 34 33
11 10 9 11 13 15 17 19 20 21 22 22 23 25 26 26 28 28 28 29 28 27 27 27 26 24 25 24 23 25 26 21 19 19 17 16 18 20 20 17 13 9 7 7 7 7 5 9 13 12 14 15 15 19 20 20 20 20 21 21 20 24 26 23 24 22 19 22 17 11 15 13 14 17 18 24 30 33 30 24 21 20 20 24 27 30 35 35
10 9 8 8 10 12 14 16 17 19 19 20 22 22 22 22 24 24 23 26 26 21 21 23 22 22 21 19 21 24 23 20 20 19 18 18 17 16 17 19 18 14 9 8 10 10 9 12 13 11 13 13 15 18 20 21 21 22 21 19 21 24 28 28 27 26 23 22 16 13 13 12 15 19 20 25 28 29 32 28 23 21 21 24 27 30 35 35
10 9 8 7 8 9 11 12 14 15 16 18 19 19 19 19 20 21 21 24 22 17 18 20 21 20 18 16 17 21 20 19 19 18 19 20 19 17 15 17 17 15 13 12 13 12 12 16 16 13 13 13 15 17 18 21 22 22 21 18 19 20 24 28 28 27 27 22 16 12 11 12 18 23 26 29 28 27 29 28 26 27 27 27 28 30 34 35
10 9 8 7 7 7 8 10 11 12 13 15 16 16 17 17 17 18 19 21 19 16 18 19 19 19 19 17 16 18 18 17 17 17 19 19 19 19 17 16 16 15 15 14 15 15 15 18 19 17 16 14 15 16 17 20 21 22 21 18 18 19 21 24 25 27 27 22 18 15 13 15 20 23 27 29 29 30 30 28 27 27 27 28 30 31 33 36
10 9 7 7 6 6 6 7 8 9 10 12 12 13 14 14 15 16 17 19 17 15 16 17 17 17 17 16 17 19 18 15 15 16 17 18 18 18 17 17 16 15 15 16 18 17 16 20 21 20 20 17 16 15 13 14 17 19 19 17 14 16 18 21 23 25 25 22 19 17 15 18 23 24 26 29 30 31 31 29 27 25 24 26 27 30 34 38
10 9 7 6 6 6 6 6 6 7 8 9 9 10 10 11 13 14 15 16 14 13 14 14 14 14 14 15 17 17 15 15 15 15 14 15 16 17 17 16 14 15 16 16 18 16 17 21 21 21 23 21 17 14 13 11 11 13 14 13 10 11 14 18 23 23 25 25 24 21 19 21 26 27 28 29 31 31 30 28 27 26 26 26 26 28 33 37
9 9 7 6 6 6 6 5 5 5 6 6 7 8 8 8 10 11 13 14 12 12 13 12 12 13 13 13 14 14 14 15 14 14 14 14 16 17 16 16 15 16 17 17 18 18 20 23 22 23 25 24 22 18 15 13 11 10 11 10 8 7 8 13 18 20 23 25 23 23 23 25 27 28 27 28 30 32 30 29 28 28 28 28 27 27 30 33
8 9 7 6 5 5 5 5 5 5 4 5 5 6 6 7 9 10 12 11 10 11 11 11 12 12 12 12 13 13 13 14 14 14 16 15 16 16 16 16 16 17 17 16 17 16 18 24 24 25 26 24 24 22 18 16 14 14 13 11 8 6 4 6 11 15 18 21 21 23 24 24 26 27 26 27 30 31 31 30 31 31 30 30 28 27 28 29
8 9 7 6 6 5 5 5 4 4 4 4 4 4 5 6 9 10 10 9 9 10 10 11 11 12 13 13 13 13 13 13 14 14 15 14 14 14 15 16 16 17 16 15 16 13 14 20 21 23 25 24 25 23 19 19 19 16 14 11 8 6 4 2 5 9 12 16 20 23 23 23 26 27 27 28 30 30 30 30 29 30 31 31 30 29 28 29
7 8 7 6 5 5 5 5 4 4 4 4 4 4 4 5 8 9 8 8 9 9 9 10 10 11 13 13 13 13 13 13 13 13 13 14 14 14 15 15 14 15 15 15 16 15 14 19 20 21 23 24 25 23 20 20 21 18 15 12 9 7 4 1 3 5 7 10 14 18 21 22 23 25 27 27 28 29 30 30 30 30 31 31 32 32 31 31
6 7 6 5 5 4 4 4 3 3 4 5 5 4 4 5 6 6 6 7 8 8 8 8 10 11 13 13 13 14 13 13 14 14 13 14 14 14 16 15 15 15 14 14 16 16 15 18 20 20 23 24 25 24 21 20 20 19 17 14 10 6 4 3 1 2 2 3 5 9 14 19 22 24 24 23 23 25 27 29 29 30 30 31 31 33 34 34
5 6 5 5 4 4 4 4 4 3 4 5 5 4 4 5 6 6 6 6 6 7 7 7 9 11 13 14 14 14 14 13 14 14 13 14 15 15 15 15 15 15 15 15 16 17 17 18 20 21 23 25 25 24 22 19 18 18 16 14 12 7 3 3 4 2 0 3 3 3 8 13 18 21 21 21 22 22 23 25 25 26 27 27 27 29 32 34
4 5 4 4 4 3 4 4 3 3 4 4 4 4 5 6 6 6 6 6 6 7 7 7 9 10 12 13 14 14 14 14 15 14 13 14 15 15 15 15 15 14 14 15 15 17 17 17 19 20 21 24 24 22 22 20 18 17 16 14 12 10 6 3 4 3 1 3 2 5 7 9 12 16 17 18 18 18 20 23 24 25 25 26 27 27 28 30
3 4 3 3 3 3 3 3 3 3 3 3 3 4 5 6 6 6 6 7 7 7 8 8 9 10 11 12 13 14 14 14 15 15 15 15 15 15 16 15 15 14 14 14 14 15 16 16 18 19 20 22 22 22 22 22 19 17 16 14 12 11 9 5 3 3 2 4 5 7 9 10 11 14 15 15 15 16 18 20 22 23 24 25 27 26 26 27
2 3 2 2 3 3 3 3 3 3 2 3 4 4 6 6 6 6 7 7 7 8 9 10 10 10 11 11 12 14 15 15 15 15 15 15 15 16 16 16 15 14 14 14 14 15 15 16 17 18 18 19 20 21 21 21 20 18 15 12 11 11 10 7 5 4 3 4 7 8 10 11 11 12 14 15 17 18 18 19 21 22 23 24 25 24 24 25
2 2 1 2 2 3 3 3 3 2 2 3 3 5 6 6 6 7 8 8 8 9 9 10 10 10 11 12 13 13 14 15 15 16 15 15 15 15 15 15 15 14 14 13 14 14 15 17 17 16 17 18 20 20 20 19 19 17 15 12 11 10 9 8 6 5 4 5 8 9 9 10 12 15 16 17 19 20 20 20 20 21 22 24 24 24 24 23
2 1 1 1 2 3 3 3 2 2 2 2 3 5 6 6 6 8 8 8 9 9 9 10 10 11 11 12 13 14 15 16 16 16 16 16 16 15 15 15 14 13 13 13 13 13 14 17 18 18 18 18 18 18 18 18 18 16 15 13 11 9 7 6 5 5 5 4 7 9 11 14 17 19 18 18 19 19 20 20 20 21 22 23 24 24 24 24
3 2 1 0 1 2 3 3 2 2 2 2 3 5 5 5 7 8 8 8 8 9 10 10 10 11 12 13 14 15 16 17 18 18 18 18 17 16 16 14 14 13 12 12 12 12 14 15 16 17 17 15 15 17 17 17 16 15 14 14 12 9 7 6 5 4 4 5 7 10 12 15 17 19 19 19 18 18 19 20 20 21 22 22 23 23 23 24
4 3 2 1 1 1 3 3 3 2 2 3 4 4 4 5 6 7 7 8 8 9 9 10 11 12 13 14 15 16 17 18 19 20 20 20 19 18 16 15 13 13 13 12 12 12 13 14 14 15 15 14 15 16 16 15 15 14 14 14 13 11 8 6 4 3 2 5 8 10 12 14 16 19 20 19 19 19 20 20 21 21 22 22 22 23 23 23
5 4 3 3 2 1 2 2 2 2 2 3 3 4 4 5 6 6 7 7 8 9 9 10 12 13 14 14 16 17 18 19 20 21 21 21 19 17 16 15 14 13 13 13 13 13 13 13 14 15 16 16 16 16 16 15 14 14 13 13 12 10 8 6 5 2 2 4 7 9 10 13 16 18 19 19 19 20 20 21 21 21 22 22 22 22 22 23
7 6 4 4 3 1 1 1 1 2 2 2 2 3 4 5 5 5 6 7 8 9 10 11 12 13 14 15 16 17 19 20 21 22 22 21 19 18 17 16 15 14 14 14 14 14 14 15 17 19 19 19 18 17 16 15 14 13 12 12 11 10 8 6 5 2 2 4 6 7 8 11 14 17 18 20 20 20 21 21 21 21 21 22 22 22 22 22
8 7 5 5 4 3 2 1 1 1 2 2 2 2 3 4 5 5 6 7 8 9 10 11 12 13 13 14 16 18 19 20 21 23 22 21 20 19 18 17 16 14 14 14 14 14 15 16 17 17 17 16 16 16 15 14 13 13 12 11 10 9 8 6 5 4 2 4 6 8 9 11 14 15 16 18 19 20 21 22 22 22 22 22 22 23 23 23
10 8 6 6 5 4 3 2 1 1 1 2 2 3 3 4 5 6 6 7 8 9 10 11 12 12 13 14 16 18 19 20 22 23 23 22 21 20 18 17 16 15 14 14 14 14 14 14 14 14 14 14 13 14 14 13 13 12 12 11 10 9 9 7 6 6 5 6 7 8 10 13 14 15 16 18 19 20 21 22 23 23 24 24 24 24 24 25
11 9 8 7 7 6 4 3 2 2 2 2 3 3 4 4 5 6 7 7 8 9 10 11 12 13 13 15 16 17 19 20 22 23 23 21 20 18 17 16 15 15 14 13 14 14 14 13 14 14 14 14 13 13 13 13 13 13 12 12 11 10 10 8 8 8 7 8 9 10 12 14 15 15 16 17 18 20 21 22 23 24 25 26 26 26 27 27
13 11 10 9 7 6 6 5 4 4 3 3 4 4 5 5 5 6 7 8 9 10 11 12 13 13 14 15 16 17 19 20 21 23 23 21 19 17 16 16 16 15 14 13 13 14 14 14 14 14 14 14 14 13 13 13 13 13 12 12 12 12 11 10 9 9 9 11 12 12 14 16 16 16 18 19 19 20 21 22 22 23 25 26 27 27 28 28
14 13 12 10 9 8 8 7 6 5 5 5 5 5 6 6 6 7 8 9 9 10 11 12 13 14 15 15 16 18 19 20 21 22 23 22 21 19 17 16 15 15 15 16 16 15 15 15 15 15 15 15 14 13 14 14 13 13 13 13 13 12 12 11 10 10 11 12 13 13 15 16 16 16 19 20 20 20 22 22 22 23 25 26 27 28 28 28
15 14 13 12 11 10 10 9 8 7 7 6 6 7 7 7 7 8 9 10 10 11 12 13 14 15 16 16 17 18 19 20 20 21 22 21 20 20 19 18 16 16 16 16 16 16 16 15 15 15 14 14 14 14 14 14 14 14 13 13 14 13 13 13 13 12 12 13 14 14 17 17 16 15 18 21 21 23 24 24 23 24 26 27 28 28 27 27
17 16 15 14 13 12 11 11 10 9 9 8 8 8 9 9 9 10 10 11 12 12 13 14 15 15 16 17 18 19 20 20 20 21 22 22 21 21 20 19 18 18 17 17 17 17 17 16 16 16 15 15 15 15 15 15 14 14 14 14 14 14 14 14 15 15 14 15 15 16 18 19 18 17 18 20 21 24 26 27 26 26 27 28 30 30 29 28
18 17 17 16 14 14 13 12 12 12 11 10 10 10 10 10 11 11 12 13 13 14 14 15 16 16 17 17 18 19 20 20 20 21 21 21 21 20 20 19 19 18 18 18 18 18 18 17 18 18 18 17 17 17 17 16 15 14 15 16 16 16 16 16 16 16 16 17 17 18 18 19 20 20 21 21 21 22 24 26 27 28 29 29 30 31 31 31
Wind_Direction
342 343 344 347 349 347 341 334 330 327 328 330 331 334 340 343 338 328 312 289 269 257 246 237 227 218 214 211 209 205 201 199 198 197 194 193 192 195 195 195 196 197 198 197 201 201 204 204 201 203 195 196 194 198 203 197 204 201 189 147 111 91 74 251 234 227 229 249 257 233 213 215 233 238 221 232 230 236 247 237 230 231 231 236 261 240 218 223
345 346 348 351 353 350 344 338 335 334 337 339 343 354 4 8 10 12 14 6 280 231 220 209 200 198 198 199 197 195 192 191 192 190 188 187 186 190 189 190 191 190 193 193 197 198 200 200 201 201 194 196 192 196 196 197 207 197 178 148 111 87 59 250 208 189 206 210 237 210 204 222 226 230 226 238 238 244 249 249 241 226 234 238 257 240 220 231
349 349 351 355 357 353 348 344 342 344 347 350 359 10 16 20 25 31 43 56 73 109 144 163 169 178 183 186 186 185 184 183 185 183 182 183 181 183 181 182 184 183 186 187 194 194 194 195 197 198 197 197 189 194 190 199 207 199 188 142 108 96 187 240 219 195 198 190 205 183 199 225 228 227 227 244 252 253 245 251 256 234 230 236 248 240 232 250
352 352 354 359 360 356 353 350 350 354 359 4 13 18 21 26 33 43 51 62 74 94 118 139 153 165 172 175 177 176 176 176 179 178 177 177 176 176 174 175 175 174 175 179 188 188 190 188 193 198 198 199 191 196 191 195 198 199 200 157 150 202 205 228 229 218 220 222 233 193 181 249 249 221 217 250 253 251 248 253 257 244 246 248 248 251 254 265
354 354 358 3 2 360 357 356 358 4 11 17 24 26 29 36 42 50 56 65 78 94 113 130 143 154 161 165 170 171 170 172 173 173 171 171 171 170 167 167 167 168 168 171 181 182 185 184 189 195 197 203 196 198 198 200 207 202 195 189 197 202 198 222 227 224 232 238 253 225 187 208 240 214 203 251 260 259 253 247 250 259 282 284 279 281 274 271
357 357 2 6 6 4 3 2 6 15 24 29 34 35 39 44 47 55 62 71 83 98 114 125 135 143 149 155 161 163 164 167 169 167 167 165 165 165 161 162 164 168 169 168 179 180 177 182 184 188 194 199 198 203 206 207 219 207 194 213 227 192 189 223 218 223 228 223 231 220 206 205 219 236 209 209 260 275 269 252 261 265 261 266 266 278 268 259
359 0 6 9 9 9 9 10 15 26 34 37 40 40 43 46 50 58 67 77 87 101 114 123 131 137 143 151 156 158 158 161 163 161 161 160 160 160 158 162 164 169 175 171 178 184 178 183 182 185 193 193 200 207 213 215 221 217 207 226 243 223 225 245 230 225 214 216 226 217 221 212 176 264 227 217 243 265 280 285 288 279 266 260 257 279 272 260
1 3 9 12 13 14 17 19 24 32 39 41 40 41 42 44 51 63 73 81 90 102 113 121 128 135 143 149 152 154 152 153 155 155 155 155 155 156 157 161 165 168 177 178 183 188 182 185 189 191 195 199 209 209 214 217 213 225 229 240 246 231 238 247 233 226 213 217 224 216 225 210 189 189 208 226 236 245 263 283 292 290 289 284 277 291 296 292
4 7 12 15 17 20 24 26 29 36 40 41 40 40 40 43 54 68 79 86 92 100 108 115 120 126 134 139 145 146 143 144 145 149 150 151 151 153 155 159 167 167 170 185 188 193 193 192 200 205 210 214 218 217 215 214 220 229 232 242 247 235 234 235 227 224 217 219 214 214 220 212 212 208 191 225 249 249 248 260 276 285 288 287 288 289 289 301
7 9 15 18 21 25 31 32 34 40 42 42 40 39 39 46 60 73 82 88 93 98 104 106 108 111 113 120 133 135 134 137 139 144 147 148 149 150 153 154 162 165 166 182 189 199 207 204 208 213 223 226 225 230 221 221 237 243 237 245 254 245 235 230 225 223 223 223 216 217 218 217 220 213 224 246 263 245 235 251 265 275 279 278 283 283 281 289
10 12 17 21 24 29 35 38 39 43 45 45 43 43 46 55 66 75 82 88 93 99 103 105 107 109 109 110 120 126 130 133 135 139 142 142 143 145 148 148 152 159 158 166 181 195 210 217 222 223 230 234 237 239 233 241 257 261 247 248 251 248 243 236 228 225 225 224 220 218 215 218 218 210 227 249 276 256 244 252 256 263 274 272 274 279 278 279
13 15 20 24 27 32 38 42 43 45 48 49 49 50 54 62 70 76 81 85 89 94 98 102 105 106 107 109 115 123 127 128 131 132 133 133 132 134 135 135 136 132 129 118 129 194 225 244 258 262 258 258 259 258 256 265 274 267 260 261 261 256 251 245 240 236 231 227 225 220 217 219 210 199 202 172 241 253 247 251 254 257 269 273 274 275 276 279
17 18 22 26 29 34 40 44 46 48 51 53 54 56 58 65 72 77 80 81 84 87 90 93 96 98 100 103 110 118 122 123 124 124 124 123 118 117 115 113 109 97 81 61 51 37 28 2 329 306 298 289 281 283 282 283 283 277 272 268 269 270 268 258 244 241 236 235 229 222 222 218 209 215 198 183 230 248 239 248 262 263 269 273 273 270 273 282
20 21 24 28 32 36 41 46 48 50 53 56 57 58 60 64 70 74 77 79 81 80 81 85 88 92 94 96 101 109 114 115 116 116 114 112 111 111 108 103 97 90 78 72 71 64 63 55 40 9 328 299 290 291 284 283 278 278 281 279 284 288 290 281 268 260 239 238 234 218 217 202 190 251 234 213 249 255 241 245 257 259 266 272 272 272 272 279
23 24 26 30 34 38 43 47 50 52 54 58 61 62 63 65 67 71 74 76 77 77 78 81 83 88 92 92 96 101 105 107 108 107 105 104 105 103 101 99 95 92 86 81 75 67 65 54 48 22 337 311 307 291 285 296 292 293 295 290 298 320 343 281 271 277 216 231 239 218 211 187 177 235 264 234 238 249 252 258 262 256 253 263 272 276 276 280
26 27 29 32 36 41 45 49 52 54 57 60 63 65 66 68 69 70 73 75 76 77 79 80 81 88 90 91 95 97 99 101 101 98 97 95 95 96 96 97 95 92 88 84 76 66 55 39 36 346 327 300 283 278 314 314 297 298 295 285 281 280 316 256 249 271 252 238 250 231 210 193 181 241 256 216 227 267 275 275 273 260 250 255 271 277 278 281
28 30 31 33 37 42 47 51 54 57 60 61 63 66 67 68 70 71 74 77 78 78 79 80 84 86 86 89 93 93 94 94 95 95 95 94 92 91 90 88 89 87 79 78 75 60 48 24 340 303 285 310 314 297 310 298 271 265 254 253 259 249 257 247 251 279 284 249 246 241 219 200 182 178 243 245 291 287 267 271 269 257 253 255 268 276 279 279
30 32 34 36 38 42 47 52 56 59 62 63 64 66 68 68 70 73 73 75 78 78 77 80 84 83 84 88 91 93 94 91 92 94 93 94 91 85 85 82 78 73 64 70 68 49 37 339 314 301 281 357 342 288 259 259 253 243 232 234 242 240 228 231 260 275 256 238 237 237 241 223 187 173 238 284 308 288 260 260 255 250 257 260 267 275 277 275
31 33 36 38 40 43 47 52 57 61 63 66 67 69 71 71 72 73 72 72 76 77 77 79 81 81 84 87 89 92 92 89 90 88 86 86 83 80 74 69 70 62 51 69 53 37 24 336 316 311 202 219 252 252 253 257 255 245 232 230 234 241 234 224 243 253 244 248 245 233 236 242 205 184 211 237 279 279 267 251 255 259 259 261 268 272 275 274
33 34 38 41 42 45 48 51 55 60 63 67 69 72 74 74 74 73 73 73 74 76 76 75 77 80 84 86 86 86 87 87 83 77 75 72 71 74 68 71 85 70 58 67 38 20 13 346 314 288 262 248 251 260 271 271 270 261 251 246 236 234 241 236 236 250 253 250 248 245 228 228 224 208 216 225 260 274 269 255 259 262 257 258 263 265 270 271
34 35 38 42 44 46 49 51 55 58 60 64 68 71 73 74 75 75 75 74 75 79 78 76 78 80 81 81 82 85 85 82 76 72 71 70 72 79 77 76 77 57 43 53 37 349 10 356 316 298 294 288 273 272 273 270 270 264 257 254 247 244 255 253 242 251 264 267 254 246 230 224 231 233 239 241 246 259 265 259 253 252 243 238 248 255 257 261
34 36 38 43 45 47 50 52 55 58 59 62 67 70 72 75 77 77 77 77 78 80 81 81 82 83 82 82 83 85 83 78 76 75 74 73 74 75 73 69 74 66 30 40 21 347 15 348 313 306 304 302 289 278 277 276 271 262 256 251 243 243 251 249 241 241 257 270 257 226 222 236 237 231 235 235 237 249 259 254 247 243 234 232 241 251 254 256
30 35 38 43 46 47 50 53 56 58 59 62 65 68 72 76 77 76 76 80 79 78 81 83 82 83 83 84 84 80 78 77 76 76 74 73 72 71 71 67 74 85 44 38 13 346 2 323 312 315 305 301 298 289 282 280 274 264 258 249 228 217 222 221 216 219 238 253 255 220 209 231 238 227 226 230 231 236 244 245 239 236 233 237 243 249 255 255
25 32 37 42 47 48 49 52 55 59 60 60 61 65 70 73 75 75 75 78 78 76 79 83 83 82 80 78 78 74 74 76 73 71 70 70 69 70 71 68 68 66 49 39 14 354 335 322 325 319 305 299 298 296 290 285 277 266 258 250 236 219 212 211 203 197 213 233 245 236 210 212 229 225 227 236 232 229 236 245 245 243 244 246 246 248 253 254
22 27 33 39 46 49 49 50 53 57 60 61 62 66 70 72 74 76 75 74 74 73 76 80 80 78 75 72 67 68 72 71 67 66 64 62 62 65 66 63 64 63 48 33 23 10 348 352 350 324 314 309 300 300 295 288 282 273 265 255 247 230 214 211 203 190 194 210 229 242 222 219 227 216 216 231 234 231 237 247 251 251 253 251 247 249 253 257
21 22 28 35 42 47 51 50 49 53 58 62 63 66 69 71 73 75 75 75 76 75 72 72 73 72 72 69 62 65 70 65 61 60 57 55 54 56 58 57 57 54 44 31 25 18 359 -0 2 347 338 323 306 307 301 294 289 283 278 267 258 246 225 218 213 201 199 202 209 215 210 228 233 219 216 224 232 239 243 248 251 250 250 247 244 246 249 252
20 19 23 30 36 41 46 48 47 46 52 58 60 61 63 65 68 70 72 74 74 70 65 65 67 67 67 68 62 61 62 58 57 55 51 51 48 48 51 50 48 42 37 28 19 17 10 6 4 1 356 341 325 320 310 301 298 291 287 282 271 258 240 231 228 222 216 211 207 202 200 228 237 224 222 230 237 243 245 246 248 250 251 247 245 246 245 246
19 18 20 25 32 35 35 41 44 41 44 51 54 56 58 58 63 65 65 68 66 61 59 59 60 59 58 59 56 55 55 51 51 47 44 45 43 42 43 42 40 36 33 28 18 14 16 12 7 9 9 359 347 336 322 309 302 298 296 295 282 262 246 239 237 234 231 228 224 214 203 225 241 231 226 235 241 244 244 242 244 249 253 255 255 250 246 246
17 16 17 21 27 31 32 34 38 38 39 43 46 50 55 56 58 61 63 63 61 55 53 52 52 51 49 48 48 50 48 43 43 39 36 38 37 37 38 38 35 31 31 27 16 10 18 18 11 13 15 10 2 350 347 340 320 313 307 302 292 264 242 232 234 236 236 238 238 231 217 224 236 232 230 238 244 246 246 243 244 248 254 262 264 258 251 250
13 14 13 17 20 25 30 31 33 37 36 37 40 41 46 52 54 57 60 58 53 50 49 46 45 46 44 42 43 43 39 37 35 31 29 28 26 27 29 31 27 23 25 22 11 6 13 16 15 18 19 16 12 6 10 9 353 348 336 319 310 278 236 219 225 232 238 241 240 234 229 230 233 233 235 240 245 251 252 251 254 257 261 266 269 264 257 254
9 13 11 10 13 19 24 26 29 32 33 32 34 33 37 47 52 52 53 50 45 44 45 41 39 39 39 40 39 36 32 29 26 24 25 23 19 16 16 20 21 21 22 20 15 9 8 11 12 16 21 21 18 16 20 19 11 8 357 343 335 305 263 217 218 229 238 240 238 236 236 239 240 239 241 242 246 253 257 260 263 266 267 270 271 268 264 262
4 9 11 8 6 14 19 22 25 25 29 26 22 29 32 41 50 50 48 44 39 39 38 37 35 32 32 31 30 28 25 22 18 17 20 20 14 9 10 13 14 19 21 18 19 13 7 13 13 13 19 23 22 20 21 22 21 17 7 1 359 348 331 257 219 225 233 234 236 238 238 242 245 245 245 245 247 252 258 262 265 267 268 269 271 272 270 266
0 5 10 9 4 10 15 19 25 22 28 22 11 26 31 34 46 46 41 37 34 32 31 31 28 26 25 24 22 20 18 16 12 10 12 12 7 1 4 8 7 14 19 16 18 18 11 15 18 16 19 23 25 24 23 23 24 23 17 15 11 14 21 322 216 213 227 235 239 238 237 242 246 247 249 250 252 254 258 263 266 268 269 269 271 273 273 269
356 2 9 9 5 8 13 21 27 24 29 22 6 14 25 34 43 38 27 29 27 24 25 24 21 17 12 11 14 12 12 11 8 7 6 3 -0 357 357 0 2 7 12 13 16 19 17 17 19 21 22 25 26 26 26 25 25 24 22 22 23 31 46 22 340 230 218 220 229 234 240 247 248 250 256 261 263 263 262 265 268 271 272 271 272 273 272 270
350 1 5 10 8 2 9 21 26 29 34 24 9 5 16 31 36 28 23 24 18 15 14 9 13 13 2 359 4 5 6 8 6 4 0 355 355 357 355 355 359 1 4 9 12 14 17 19 18 20 23 25 27 28 29 29 29 27 25 27 31 33 26 0 356 341 202 153 169 255 268 264 257 257 264 269 271 271 270 270 271 273 274 273 273 274 273 269
344 0 2 8 9 1 10 20 26 34 34 23 13 8 19 33 32 22 21 18 11 9 5 358 5 9 1 356 358 0 2 4 3 -0 358 356 356 356 355 354 357 -0 0 4 9 10 13 18 18 19 22 25 27 30 32 32 32 31 30 31 34 34 28 11 15 17 283 225 283 311 298 279 263 263 270 275 275 274 273 274 273 272 273 272 272 274 275 272
336 357 359 1 6 8 14 21 26 33 27 15 14 19 28 35 30 21 18 14 8 3 358 357 2 3 0 358 356 358 2 2 -0 359 357 357 357 357 357 357 356 358 358 -0 5 7 10 14 17 19 22 24 26 30 35 36 35 35 33 32 33 37 38 33 19 11 320 279 293 300 293 284 272 272 277 277 278 278 274 273 273 272 272 272 272 273 275 273
322 348 356 356 4 16 20 24 25 21 28 21 15 26 34 32 28 24 19 12 4 358 354 356 1 2 2 3 2 360 0 -0 359 359 356 355 357 357 357 358 358 357 356 357 1 4 4 7 15 21 25 26 27 31 35 36 37 41 41 37 36 39 40 35 17 359 330 298 294 296 294 289 284 285 283 279 281 282 278 275 273 273 271 270 272 274 275 275
291 326 348 354 7 25 26 28 23 8 37 37 19 29 33 27 26 25 17 7 360 355 355 358 4 8 7 6 7 6 6 7 6 4 2 359 359 359 357 358 360 359 356 356 0 2 358 1 10 18 22 25 27 32 36 36 37 41 45 47 45 43 41 37 26 11 347 309 299 298 291 285 289 294 291 287 288 287 284 282 279 276 274 273 274 274 275 276
255 298 322 0 20 35 37 33 23 6 30 41 34 37 31 22 25 21 10 3 360 359 2 5 8 10 11 13 16 18 17 16 14 11 9 7 4 1 359 0 2 -0 359 358 359 359 357 3 6 8 16 24 26 31 35 36 37 39 42 48 51 49 46 44 35 14 353 323 305 297 287 285 291 296 294 290 289 288 287 286 285 283 281 279 277 276 274 274
234 251 235 168 39 46 50 40 27 23 33 42 44 40 28 22 23 16 7 3 4 6 5 7 12 14 19 23 23 22 21 16 13 11 10 7 4 2 1 2 4 3 4 3 2 0 2 8 5 3 14 24 24 27 31 32 35 37 38 43 50 56 57 53 44 14 336 314 307 297 288 288 292 294 293 289 288 288 288 288 288 287 285 283 282 280 278 275
224 225 212 180 133 73 64 46 32 32 36 40 43 37 27 27 23 13 11 9 6 7 7 12 20 23 24 24 21 19 17 13 10 8 7 4 2 2 3 4 6 7 8 7 7 7 7 9 5 3 14 24 22 22 25 25 28 31 33 37 43 51 57 57 50 23 326 312 307 298 293 294 293 292 290 289 290 291 291 290 289 287 286 284 282 280 279 278
222 222 211 194 193 134 79 55 33 31 36 35 36 35 28 28 24 13 10 9 5 9 16 19 23 26 23 20 18 16 13 11 9 7 6 5 3 3 6 8 8 10 11 9 9 11 10 9 6 4 14 22 21 18 17 17 20 24 29 31 35 42 51 59 55 26 311 306 302 297 299 298 293 291 289 289 292 294 293 292 290 288 287 286 284 281 279 278
220 223 213 200 200 185 116 81 37 20 29 21 11 25 30 22 16 7 3 4 5 11 17 18 19 21 20 16 15 14 11 9 7 6 6 6 6 8 10 11 11 11 11 9 10 11 11 11 8 6 12 15 12 11 11 11 13 16 22 25 27 30 36 47 47 19 292 296 291 281 291 298 294 291 289 290 294 295 294 293 292 291 289 288 288 287 284 282
221 223 217 208 205 200 186 156 53 357 355 352 340 357 15 10 359 355 354 355 358 6 11 11 12 13 13 12 12 11 9 8 7 7 7 8 10 12 12 11 11 12 10 10 12 12 12 12 8 8 12 12 7 6 6 7 8 8 12 18 19 18 19 20 18 4 311 298 287 271 276 286 289 293 294 293 293 290 289 290 290 291 291 290 290 289 289 288
222 221 218 214 211 209 206 201 213 288 302 313 320 327 340 351 350 344 343 345 349 358 2 1 2 5 4 6 8 8 7 6 7 7 8 10 12 11 11 11 9 8 8 9 11 13 13 11 8 9 11 9 6 3 1 3 5 4 5 9 9 7 5 358 351 342 318 304 296 286 284 284 286 294 298 295 293 290 288 288 288 288 289 289 288 288 288 287
223 221 218 216 216 218 214 211 226 250 274 291 304 315 321 330 339 336 334 338 341 347 352 352 352 355 357 360 2 4 4 4 6 7 8 11 13 12 10 11 10 8 7 8 9 9 10 9 10 11 8 6 5 2 1 2 2 1 1 1 1 360 355 349 338 327 315 306 302 298 294 294 296 298 296 294 292 291 291 289 288 288 288 287 287 286 285 285
225 224 223 223 223 222 218 217 226 244 264 280 294 306 310 315 324 327 327 331 334 338 342 342 343 346 351 354 356 358 1 3 4 5 6 8 12 14 13 13 11 9 8 10 10 8 7 7 8 8 5 4 3 -0 1 4 2 1 359 357 356 353 350 346 336 325 316 307 307 306 298 298 302 300 296 293 290 289 289 289 289 289 289 289 288 287 287 286
228 229 229 229 227 223 223 227 230 241 258 273 284 294 301 307 314 318 322 325 327 330 333 333 335 340 344 347 350 353 357 1 2 3 4 5 6 9 11 12 11 9 9 11 11 7 5 5 5 6 4 2 1 359 -0 4 3 0 359 357 354 349 346 344 337 329 319 309 310 308 299 301 307 301 295 294 292 290 289 289 290 291 289 288 289 289 289 288
231 233 234 234 233 230 231 236 239 242 253 264 274 284 292 299 306 311 315 318 320 323 326 327 329 333 337 341 344 348 352 356 359 0 1 2 4 4 6 6 7 9 11 11 9 6 5 4 3 4 2 359 360 1 359 0 1 360 357 356 354 349 347 343 339 332 323 315 315 308 300 305 312 302 293 294 294 292 291 291 292 291 289 289 289 289 289 287
234 235 236 237 237 237 238 241 244 247 253 261 268 275 284 291 298 304 307 310 312 315 319 322 324 328 332 336 339 343 348 351 354 357 357 358 0 2 2 2 3 5 7 8 8 7 6 2 359 1 4 4 2 359 358 359 358 356 355 355 354 351 348 344 339 335 327 321 319 313 307 309 313 306 297 294 292 289 289 291 291 289 288 287 288 289 288 286
236 237 239 241 241 242 245 245 247 250 254 260 265 270 277 284 290 296 300 303 306 309 313 316 320 323 327 332 335 338 342 345 348 352 353 354 356 357 358 359 0 1 2 4 5 4 3 1 359 359 2 4 2 357 357 357 354 351 351 353 354 353 349 343 339 336 330 324 321 317 312 311 311 307 303 298 294 290 288 288 289 287 285 284 285 286 286 286
Height
5794 5790 5784 5779 5772 5766 5760 5755 5751 5746 5742 5739 5737 5734 5732 5731 5730 5729 5729 5730 5730 5731 5732 5733 5734 5736 5737 5739 5741 5743 5746 5749 5751 5754 5757 5759 5762 5764 5766 5768 5770 5771 5773 5775 5776 5777 5779 5780 5782 5783 5784 5785 5786 5787 5788 5789 5790 5791 5793 5795 5797 5799 5804 5808 5808 5808 5809 5806 5801 5800 5800 5801 5800 5799 5800 5801 5800 5800 5802 5803 5804 5803 5802 5803 5804 5803 5803 5803
5793 5788 5783 5777 5770 5764 5758 5753 5749 5745 5741 5739 5736 5734 5733 5731 5730 5730 5730 5730 5731 5731 5732 5733 5734 5736 5737 5739 5741 5743 5745 5748 5751 5754 5757 5759 5761 5764 5766 5768 5769 5771 5773 5774 5776 5777 5779 5780 5781 5783 5784 5784 5785 5787 5788 5789 5790 5791 5793 5795 5797 5799 5807 5809 5805 5804 5804 5802 5800 5800 5800 5800 5800 5799 5800 5800 5799 5800 5800 5801 5803 5803 5802 5803 5803 5803 5804 5804
5792 5787 5782 5775 5768 5762 5757 5752 5748 5744 5741 5739 5737 5735 5733 5732 5731 5731 5730 5730 5731 5731 5732 5733 5734 5736 5737 5739 5741 5743 5746 5748 5751 5754 5757 5759 5762 5764 5766 5768 5770 5771 5773 5774 5775 5777 5778 5780 5781 5782 5783 5784 5785 5786 5787 5789 5790 5791 5793 5795 5796 5799 5805 5805 5800 5799 5798 5799 5799 5799 5800 5800 5800 5799 5800 5800 5799 5799 5799 5799 5800 5801 5802 5803 5803 5802 5803 5803
5791 5786 5781 5774 5767 5762 5756 5751 5747 5744 5741 5739 5737 5736 5734 5733 5732 5732 5731 5731 5731 5732 5732 5733 5734 5736 5737 5739 5741 5743 5746 5749 5751 5754 5757 5759 5762 5764 5766 5768 5770 5772 5773 5774 5776 5777 5778 5779 5780 5781 5783 5783 5785 5786 5787 5788 5789 5791 5793 5794 5796 5798 5800 5798 5798 5798 5798 5799 5799 5800 5801 5801 5800 5799 5800 5800 5798 5799 5798 5798 5799 5799 5800 5801 5801 5801 5802 5802
5791 5786 5780 5773 5767 5761 5756 5751 5747 5744 5742 5740 5738 5737 5735 5734 5733 5732 5732 5732 5732 5732 5733 5734 5735 5736 5738 5740 5742 5744 5746 5749 5752 5754 5757 5760 5762 5764 5766 5768 5770 5772 5773 5774 5776 5777 5778 5779 5780 5781 5782 5783 5784 5786 5787 5788 5788 5790 5792 5792 5792 5795 5796 5796 5797 5797 5797 5799 5799 5800 5800 5800 5799 5799 5800 5799 5797 5797 5798 5798 5799 5799 5799 5799 5799 5800 5800 5800
5791 5786 5780 5773 5767 5761 5756 5752 5748 5745 5743 5741 5740 5738 5737 5735 5734 5733 5733 5733 5733 5733 5734 5735 5736 5737 5739 5741 5743 5745 5748 5750 5753 5755 5758 5760 5763 5765 5767 5769 5770 5772 5773 5774 5776 5777 5778 5779 5780 5781 5782 5783 5784 5785 5786 5788 5788 5790 5791 5791 5791 5794 5795 5795 5795 5796 5797 5798 5798 5799 5799 5798 5799 5800 5800 5799 5796 5794 5795 5796 5798 5800 5800 5799 5799 5799 5799 5799
5791 5786 5780 5774 5768 5762 5757 5753 5749 5747 5745 5743 5741 5740 5738 5737 5735 5734 5734 5734 5734 5735 5735 5736 5737 5739 5740 5742 5744 5746 5749 5751 5754 5756 5759 5761 5763 5765 5767 5769 5770 5772 5773 5774 5775 5777 5777 5779 5780 5781 5782 5782 5783 5785 5786 5787 5788 5789 5790 5790 5791 5793 5793 5793 5794 5795 5795 5796 5797 5798 5798 5798 5799 5800 5800 5798 5796 5794 5793 5793 5794 5796 5797 5798 5798 5799 5799 5798
5792 5787 5781 5775 5769 5763 5758 5754 5751 5748 5746 5745 5743 5741 5740 5738 5737 5736 5735 5735 5736 5736 5737 5738 5739 5740 5742 5743 5745 5747 5750 5752 5755 5758 5760 5762 5764 5766 5768 5769 5770 5772 5773 5774 5775 5776 5777 5778 5779 5780 5781 5782 5783 5784 5785 5787 5788 5788 5789 5789 5790 5792 5792 5793 5794 5794 5794 5795 5796 5797 5797 5798 5798 5799 5799 5799 5798 5796 5796 5794 5793 5793 5792 5793 5796 5797 5797 5797
5793 5788 5782 5776 5771 5765 5760 5756 5753 5750 5748 5746 5745 5743 5741 5740 5739 5738 5737 5737 5738 5738 5739 5740 5741 5743 5744 5746 5748 5750 5752 5754 5757 5759 5761 5763 5765 5767 5768 5770 5771 5772 5773 5774 5775 5776 5777 5778 5779 5780 5781 5782 5783 5784 5785 5786 5787 5787 5788 5789 5789 5791 5792 5792 5792 5793 5793 5794 5795 5795 5796 5797 5797 5797 5799 5800 5799 5796 5797 5797 5795 5795 5792 5791 5794 5796 5796 5796
5794 5789 5783 5778 5772 5767 5762 5759 5755 5752 5750 5748 5747 5745 5743 5742 5741 5740 5740 5739 5740 5740 5741 5743 5744 5746 5747 5749 5750 5752 5754 5756 5758 5760 5762 5764 5765 5767 5769 5770 5772 5772 5774 5775 5776 5777 5778 5779 5779 5780 5781 5782 5783 5784 5785 5785 5786 5787 5787 5788 5788 5790 5790 5791 5791 5792 5792 5793 5794 5794 5795 5796 5796 5798 5798 5799 5799 5796 5797 5798 5797 5797 5794 5791 5794 5796 5796 5796
5795 5790 5785 5780 5775 5769 5765 5761 5758 5755 5752 5750 5749 5747 5746 5744 5743 5743 5742 5742 5742 5743 5744 5745 5746 5748 5749 5751 5752 5754 5756 5758 5759 5761 5763 5765 5766 5768 5769 5771 5772 5773 5774 5775 5776 5777 5778 5779 5780 5780 5781 5782 5783 5784 5785 5785 5786 5786 5787 5787 5788 5788 5788 5789 5790 5790 5791 5792 5792 5793 5793 5794 5795 5797 5797 5798 5799 5795 5796 5797 5796 5797 5795 5791 5793 5796 5796 5796
5796 5792 5787 5782 5777 5772 5768 5764 5761 5758 5755 5753 5751 5750 5749 5747 5747 5746 5746 5745 5746 5746 5747 5748 5749 5750 5752 5753 5755 5757 5758 5760 5761 5763 5765 5767 5768 5770 5771 5772 5773 5774 5775 5776 5777 5778 5779 5779 5780 5781 5781 5782 5783 5784 5784 5785 5785 5786 5786 5786 5787 5787 5788 5789 5789 5790 5790 5791 5791 5792 5792 5793 5794 5796 5797 5799 5799 5795 5796 5797 5796 5797 5796 5792 5792 5795 5795 5795
5798 5794 5789 5785 5780 5775 5771 5767 5764 5761 5759 5756 5755 5753 5752 5751 5750 5749 5749 5749 5749 5750 5750 5751 5752 5753 5754 5755 5757 5759 5760 5762 5763 5765 5766 5768 5770 5771 5772 5773 5774 5775 5776 5777 5778 5778 5779 5779 5780 5781 5781 5782 5782 5783 5783 5784 5785 5785 5785 5786 5786 5786 5786 5787 5788 5789 5790 5790 5790 5791 5792 5793 5794 5796 5796 5798 5796 5794 5795 5797 5796 5796 5796 5793 5790 5794 5795 5794
5799 5796 5791 5787 5783 5779 5774 5771 5767 5765 5762 5760 5758 5757 5756 5755 5754 5753 5753 5752 5753 5753 5754 5755 5756 5756 5757 5758 5760 5761 5762 5764 5765 5767 5768 5769 5771 5772 5773 5774 5775 5776 5776 5777 5778 5778 5779 5779 5780 5780 5781 5781 5782 5782 5783 5783 5784 5784 5784 5785 5785 5786 5786 5786 5785 5787 5789 5788 5788 5790 5791 5792 5795 5797 5796 5797 5795 5793 5794 5795 5796 5796 5796 5794 5789 5791 5795 5794
5801 5798 5794 5790 5786 5782 5778 5774 5771 5768 5766 5763 5762 5760 5760 5759 5758 5757 5757 5756 5756 5757 5758 5758 5759 5759 5760 5761 5763 5764 5765 5766 5767 5769 5770 5771 5772 5773 5774 5775 5775 5776 5777 5777 5778 5778 5779 5779 5780 5780 5780 5780 5781 5782 5782 5782 5782 5783 5783 5784 5786 5786 5788 5788 5785 5785 5788 5787 5787 5789 5790 5791 5794 5796 5796 5797 5795 5792 5793 5794 5794 5795 5795 5794 5789 5789 5792 5793
5802 5799 5796 5792 5789 5785 5781 5778 5774 5772 5769 5767 5765 5764 5763 5762 5761 5761 5760 5760 5760 5760 5760 5761 5762 5762 5762 5763 5765 5766 5767 5768 5769 5770 5771 5772 5773 5774 5774 5775 5776 5776 5777 5777 5778 5778 5779 5779 5779 5779 5780 5780 5780 5780 5781 5782 5784 5784 5784 5785 5787 5788 5790 5791 5786 5785 5788 5787 5787 5787 5789 5791 5793 5796 5797 5795 5794 5792 5791 5793 5793 5793 5794 5794 5790 5787 5790 5792
5803 5801 5798 5795 5792 5788 5785 5782 5778 5776 5773 5771 5769 5767 5766 5765 5764 5764 5764 5763 5763 5763 5763 5763 5765 5764 5764 5766 5768 5769 5770 5770 5771 5772 5773 5774 5774 5775 5775 5776 5776 5777 5777 5778 5778 5778 5779 5779 5779 5779 5779 5779 5780 5780 5781 5784 5785 5784 5784 5785 5788 5788 5790 5791 5786 5785 5787 5788 5789 5787 5787 5790 5791 5795 5796 5792 5792 5792 5791 5791 5792 5792 5792 5793 5791 5787 5787 5790
5805 5803 5800 5797 5794 5791 5788 5785 5782 5780 5777 5775 5773 5771 5770 5769 5768 5768 5767 5767 5766 5766 5766 5767 5767 5766 5767 5770 5770 5771 5772 5772 5773 5773 5774 5775 5775 5776 5776 5777 5777 5777 5778 5778 5778 5779 5779 5779 5779 5779 5778 5779 5781 5781 5781 5782 5781 5782 5782 5783 5785 5786 5788 5790 5787 5785 5785 5787 5789 5787 5786 5789 5789 5792 5794 5791 5789 5789 5790 5791 5790 5791 5791 5791 5791 5787 5785 5787
5806 5804 5802 5800 5797 5794 5791 5789 5786 5784 5781 5779 5777 5775 5774 5773 5772 5771 5770 5771 5769 5768 5770 5770 5770 5769 5770 5772 5772 5773 5773 5773 5775 5775 5775 5776 5776 5776 5777 5777 5777 5778 5778 5778 5778 5778 5779 5778 5778 5778 5777 5778 5780 5779 5779 5779 5778 5778 5779 5780 5781 5783 5785 5787 5788 5785 5784 5785 5786 5785 5786 5789 5790 5791 5792 5793 5791 5787 5789 5790 5789 5790 5790 5790 5790 5787 5783 5784
5807 5805 5804 5801 5799 5797 5794 5792 5790 5787 5785 5783 5781 5779 5777 5776 5775 5774 5774 5774 5772 5771 5773 5773 5773 5773 5774 5775 5774 5775 5775 5775 5776 5776 5776 5776 5777 5777 5777 5777 5777 5778 5777 5778 5779 5778 5778 5778 5778 5778 5777 5777 5777 5777 5777 5776 5776 5776 5777 5778 5778 5780 5782 5784 5786 5784 5781 5784 5785 5784 5786 5788 5789 5790 5790 5794 5793 5786 5786 5789 5788 5789 5790 5789 5789 5787 5783 5779
5808 5807 5805 5803 5801 5799 5797 5795 5793 5790 5788 5786 5785 5782 5781 5779 5778 5778 5778 5777 5776 5776 5775 5776 5777 5777 5777 5777 5777 5777 5777 5777 5778 5778 5778 5778 5778 5778 5777 5777 5777 5778 5778 5778 5779 5779 5778 5778 5778 5778 5777 5777 5776 5775 5775 5773 5773 5773 5774 5775 5776 5778 5781 5782 5785 5783 5779 5780 5783 5782 5783 5785 5787 5789 5791 5793 5792 5786 5784 5786 5785 5786 5787 5786 5785 5783 5780 5777
5809 5808 5806 5805 5803 5801 5799 5798 5795 5793 5791 5790 5788 5786 5784 5783 5782 5782 5781 5780 5781 5779 5778 5780 5780 5780 5780 5780 5780 5780 5779 5779 5780 5780 5780 5780 5779 5778 5778 5778 5777 5779 5779 5779 5779 5779 5779 5779 5777 5777 5776 5775 5774 5773 5772 5770 5770 5770 5769 5770 5772 5776 5778 5779 5782 5783 5780 5777 5779 5780 5781 5784 5786 5788 5791 5791 5788 5784 5782 5782 5781 5781 5782 5781 5781 5779 5777 5776
5809 5808 5807 5806 5804 5803 5801 5800 5798 5796 5794 5793 5792 5789 5787 5787 5786 5785 5784 5783 5784 5783 5782 5783 5783 5783 5783 5783 5783 5782 5780 5782 5783 5782 5782 5782 5781 5779 5779 5779 5779 5780 5780 5780 5780 5779 5780 5779 5776 5775 5774 5772 5771 5770 5768 5767 5766 5766 5765 5765 5767 5768 5769 5771 5774 5778 5780 5777 5777 5778 5779 5782 5785 5787 5789 5786 5782 5779 5777 5776 5776 5777 5778 5778 5779 5777 5774 5775
5810 5809 5808 5807 5806 5804 5803 5802 5800 5798 5797 5796 5794 5792 5791 5790 5788 5788 5787 5786 5786 5787 5786 5786 5786 5786 5786 5785 5785 5783 5783 5784 5784 5783 5784 5783 5782 5781 5780 5780 5780 5780 5780 5780 5780 5779 5779 5778 5775 5774 5773 5770 5769 5767 5764 5763 5762 5761 5761 5761 5762 5762 5763 5765 5767 5770 5775 5775 5774 5775 5776 5779 5782 5784 5784 5779 5775 5774 5771 5771 5774 5776 5777 5777 5777 5775 5772 5773
5810 5809 5808 5808 5806 5805 5804 5803 5802 5800 5799 5798 5796 5795 5794 5793 5791 5790 5790 5788 5788 5790 5790 5788 5788 5788 5787 5788 5787 5785 5785 5786 5785 5785 5785 5784 5783 5782 5781 5780 5780 5780 5780 5780 5779 5779 5778 5776 5774 5773 5771 5769 5767 5764 5761 5760 5759 5757 5757 5758 5758 5758 5759 5761 5761 5763 5766 5769 5770 5771 5773 5776 5776 5777 5777 5772 5769 5770 5769 5770 5774 5776 5775 5775 5775 5775 5771 5771
5810 5809 5809 5808 5807 5806 5805 5804 5803 5802 5801 5799 5798 5797 5796 5795 5794 5793 5792 5790 5790 5793 5792 5790 5790 5789 5789 5790 5789 5787 5787 5787 5787 5786 5786 5785 5784 5783 5782 5781 5780 5781 5780 5779 5779 5778 5777 5775 5773 5771 5768 5767 5764 5761 5759 5757 5755 5754 5754 5755 5756 5756 5758 5758 5759 5760 5760 5762 5764 5766 5770 5772 5770 5769 5768 5766 5766 5766 5767 5770 5772 5772 5771 5771 5772 5772 5770 5769
5810 5810 5809 5808 5808 5807 5806 5805 5804 5803 5802 5801 5800 5799 5798 5797 5796 5795 5793 5792 5792 5794 5793 5792 5792 5791 5791 5791 5790 5788 5788 5788 5788 5787 5786 5785 5784 5784 5783 5781 5781 5780 5780 5779 5778 5777 5776 5774 5771 5769 5767 5764 5761 5758 5756 5754 5752 5751 5751 5752 5753 5754 5755 5756 5757 5759 5759 5761 5762 5763 5767 5767 5764 5765 5765 5763 5763 5764 5765 5767 5768 5768 5769 5769 5769 5769 5768 5766
5811 5810 5809 5809 5808 5807 5806 5805 5805 5804 5803 5802 5801 5800 5799 5798 5797 5796 5795 5793 5794 5795 5794 5794 5793 5793 5792 5792 5791 5789 5789 5789 5789 5788 5787 5786 5785 5784 5783 5782 5781 5780 5780 5779 5778 5777 5776 5773 5771 5768 5765 5762 5759 5756 5754 5752 5750 5749 5748 5749 5749 5750 5752 5753 5754 5756 5759 5760 5761 5762 5764 5762 5760 5762 5763 5761 5761 5761 5762 5764 5765 5766 5767 5767 5767 5767 5766 5764
5811 5810 5809 5809 5808 5807 5807 5806 5805 5805 5804 5803 5802 5801 5801 5800 5799 5797 5796 5796 5796 5796 5796 5795 5795 5794 5793 5793 5791 5790 5791 5790 5789 5788 5788 5787 5786 5785 5784 5782 5782 5781 5779 5778 5778 5776 5774 5773 5770 5767 5764 5761 5758 5755 5753 5751 5749 5748 5747 5746 5746 5746 5747 5749 5751 5754 5756 5757 5759 5761 5761 5758 5757 5759 5760 5760 5759 5759 5760 5762 5763 5765 5765 5765 5766 5766 5765 5764
5811 5810 5809 5809 5808 5808 5807 5806 5806 5805 5804 5804 5803 5803 5802 5801 5800 5799 5798 5797 5798 5797 5797 5796 5796 5795 5794 5793 5792 5792 5791 5790 5790 5789 5788 5786 5785 5785 5784 5783 5782 5780 5779 5778 5777 5775 5773 5771 5770 5767 5764 5760 5757 5755 5752 5750 5748 5747 5745 5744 5744 5744 5744 5746 5748 5751 5753 5755 5757 5759 5758 5756 5755 5757 5758 5759 5758 5758 5759 5760 5761 5762 5763 5763 5763 5764 5764 5763
5811 5810 5809 5809 5808 5808 5807 5807 5806 5806 5805 5804 5804 5803 5803 5802 5801 5800 5799 5799 5799 5798 5798 5797 5797 5796 5795 5794 5793 5793 5792 5791 5790 5789 5788 5786 5785 5785 5784 5783 5782 5780 5778 5778 5776 5774 5772 5770 5768 5766 5763 5761 5757 5754 5752 5750 5748 5746 5745 5744 5743 5743 5744 5744 5746 5749 5751 5753 5755 5756 5755 5755 5755 5755 5756 5757 5757 5757 5758 5759 5759 5760 5761 5761 5761 5761 5761 5761
5811 5810 5809 5809 5808 5808 5807 5807 5806 5806 5805 5805 5804 5804 5803 5802 5801 5800 5800 5800 5800 5799 5799 5798 5798 5797 5796 5795 5794 5793 5792 5791 5790 5789 5788 5787 5786 5786 5784 5783 5782 5780 5778 5777 5776 5774 5773 5771 5769 5766 5763 5761 5758 5755 5752 5750 5748 5746 5745 5744 5743 5743 5744 5744 5746 5747 5749 5751 5751 5753 5753 5754 5754 5755 5755 5755 5755 5756 5757 5757 5758 5758 5758 5758 5758 5758 5759 5759
5811 5810 5809 5809 5808 5808 5808 5807 5807 5806 5806 5805 5805 5804 5803 5802 5801 5801 5801 5801 5800 5800 5799 5799 5798 5798 5797 5796 5795 5794 5793 5792 5791 5790 5789 5788 5787 5785 5784 5783 5782 5781 5779 5778 5776 5774 5773 5771 5769 5766 5764 5761 5758 5755 5753 5750 5748 5747 5746 5745 5744 5744 5744 5745 5746 5746 5748 5749 5750 5751 5752 5752 5753 5753 5753 5753 5754 5755 5755 5755 5755 5755 5755 5755 5755 5755 5755 5755
5810 5810 5809 5809 5809 5808 5808 5807 5807 5806 5806 5806 5805 5804 5803 5803 5802 5802 5802 5801 5801 5801 5800 5800 5799 5798 5797 5797 5796 5795 5793 5792 5791 5790 5789 5788 5787 5786 5784 5783 5782 5780 5779 5778 5776 5774 5772 5770 5768 5767 5764 5761 5759 5756 5753 5751 5749 5748 5747 5745 5745 5745 5745 5746 5746 5747 5748 5749 5749 5750 5751 5751 5752 5752 5752 5752 5753 5754 5753 5753 5753 5753 5753 5753 5752 5752 5751 5751
5810 5810 5809 5809 5808 5808 5807 5807 5807 5807 5806 5806 5805 5804 5804 5803 5802 5802 5802 5802 5802 5801 5801 5800 5800 5799 5798 5797 5796 5795 5794 5792 5791 5790 5789 5788 5787 5785 5784 5783 5781 5780 5779 5777 5776 5774 5772 5770 5769 5767 5764 5762 5759 5757 5755 5753 5750 5749 5748 5747 5746 5746 5746 5746 5747 5747 5748 5748 5749 5750 5750 5750 5751 5751 5751 5751 5751 5751 5751 5750 5750 5750 5750 5750 5749 5748 5747 5747
5810 5810 5809 5809 5808 5808 5808 5807 5807 5807 5806 5806 5806 5805 5804 5803 5803 5803 5803 5802 5802 5802 5801 5801 5800 5799 5798 5797 5796 5795 5794 5792 5791 5790 5789 5788 5787 5785 5784 5783 5781 5780 5778 5777 5775 5774 5773 5771 5769 5767 5765 5763 5761 5758 5756 5754 5752 5750 5749 5748 5747 5747 5747 5747 5747 5748 5748 5749 5749 5749 5749 5749 5749 5750 5750 5749 5749 5749 5748 5748 5748 5747 5747 5746 5746 5745 5744 5744
5810 5810 5809 5809 5809 5808 5808 5807 5807 5807 5806 5806 5806 5805 5804 5804 5804 5803 5803 5803 5803 5802 5802 5801 5800 5800 5799 5797 5796 5795 5794 5793 5791 5790 5789 5788 5786 5785 5783 5782 5781 5779 5778 5777 5775 5774 5772 5771 5769 5767 5765 5763 5761 5759 5757 5755 5753 5751 5750 5749 5748 5748 5748 5748 5748 5748 5749 5749 5749 5749 5748 5748 5748 5748 5748 5748 5747 5747 5746 5745 5745 5744 5744 5743 5742 5742 5741 5741
5810 5810 5809 5809 5808 5808 5807 5807 5807 5807 5806 5806 5806 5806 5805 5805 5804 5804 5804 5803 5803 5803 5802 5801 5801 5800 5799 5798 5796 5795 5794 5793 5791 5790 5789 5787 5786 5785 5783 5781 5780 5779 5778 5776 5775 5773 5772 5771 5769 5767 5765 5764 5762 5760 5758 5756 5754 5752 5751 5750 5749 5749 5748 5748 5749 5749 5749 5748 5749 5748 5747 5747 5747 5747 5747 5746 5745 5745 5744 5743 5742 5742 5741 5740 5739 5739 5739 5738
5809 5809 5809 5809 5808 5808 5807 5807 5807 5807 5806 5806 5806 5806 5805 5805 5805 5804 5804 5804 5804 5803 5802 5802 5801 5800 5799 5798 5796 5795 5794 5793 5791 5790 5789 5787 5786 5784 5783 5781 5780 5778 5777 5776 5774 5773 5772 5770 5769 5767 5766 5764 5762 5760 5759 5758 5756 5754 5752 5751 5750 5749 5749 5749 5749 5749 5749 5749 5748 5748 5747 5746 5746 5746 5745 5745 5744 5743 5742 5741 5740 5739 5739 5738 5737 5736 5736 5735
5809 5809 5809 5809 5808 5808 5807 5807 5807 5807 5807 5806 5806 5806 5806 5806 5805 5805 5805 5804 5804 5803 5803 5802 5801 5800 5799 5797 5796 5795 5794 5792 5791 5790 5788 5787 5785 5784 5782 5781 5779 5778 5777 5776 5774 5773 5772 5770 5768 5767 5765 5764 5762 5761 5760 5758 5757 5755 5754 5752 5751 5750 5749 5749 5749 5749 5749 5749 5748 5747 5746 5745 5745 5744 5744 5743 5742 5740 5739 5739 5738 5737 5736 5735 5734 5733 5733 5732
5808 5808 5808 5808 5808 5808 5807 5807 5807 5807 5807 5806 5806 5806 5806 5806 5805 5805 5805 5805 5804 5804 5803 5802 5801 5800 5799 5798 5796 5795 5794 5792 5791 5789 5788 5786 5785 5783 5782 5780 5779 5778 5777 5775 5774 5773 5772 5770 5768 5767 5765 5764 5763 5761 5760 5759 5758 5756 5755 5753 5751 5750 5750 5750 5749 5749 5749 5748 5747 5747 5746 5745 5743 5742 5741 5740 5739 5738 5737 5737 5736 5734 5733 5732 5731 5731 5730 5729
5808 5808 5808 5808 5808 5808 5807 5807 5807 5807 5807 5807 5806 5806 5806 5806 5805 5805 5805 5805 5804 5804 5803 5802 5801 5800 5799 5798 5797 5795 5794 5792 5791 5789 5787 5785 5784 5782 5781 5779 5778 5777 5776 5775 5774 5773 5771 5770 5769 5767 5765 5764 5763 5761 5760 5759 5758 5757 5755 5753 5752 5751 5750 5749 5749 5749 5748 5748 5746 5745 5745 5744 5742 5740 5739 5738 5737 5736 5735 5734 5733 5732 5731 5730 5729 5728 5728 5727
5808 5808 5808 5808 5808 5807 5807 5807 5807 5807 5807 5807 5807 5807 5806 5806 5806 5806 5805 5805 5805 5804 5803 5802 5801 5800 5799 5798 5797 5796 5794 5792 5791 5789 5787 5785 5783 5782 5780 5779 5777 5776 5775 5774 5773 5772 5771 5769 5768 5767 5765 5763 5762 5761 5760 5759 5758 5757 5755 5754 5752 5751 5750 5749 5748 5747 5747 5746 5745 5744 5743 5742 5741 5739 5737 5735 5734 5734 5733 5732 5731 5730 5729 5728 5727 5726 5725 5725
5807 5807 5807 5807 5807 5807 5807 5807 5807 5807 5807 5807 5807 5807 5807 5806 5806 5806 5806 5805 5805 5804 5803 5802 5801 5800 5799 5799 5797 5796 5794 5793 5791 5789 5787 5785 5783 5781 5779 5778 5777 5775 5774 5773 5772 5771 5770 5768 5766 5765 5763 5762 5761 5760 5760 5759 5758 5757 5755 5754 5752 5751 5750 5749 5748 5747 5746 5745 5744 5743 5742 5740 5739 5737 5735 5734 5733 5732 5731 5730 5729 5727 5726 5725 5724 5723 5722 5722
5806 5807 5807 5807 5807 5807 5807 5807 5807 5807 5807 5807 5807 5807 5807 5807 5806 5806 5806 5805 5805 5804 5803 5802 5801 5800 5800 5799 5798 5796 5795 5793 5791 5789 5787 5785 5783 5781 5779 5777 5776 5775 5774 5773 5771 5770 5769 5767 5766 5765 5763 5762 5762 5761 5760 5759 5758 5756 5755 5754 5752 5751 5750 5749 5747 5746 5745 5744 5743 5742 5740 5739 5737 5736 5734 5733 5732 5731 5729 5728 5726 5725 5724 5723 5722 5720 5719 5718
5805 5806 5806 5806 5806 5806 5806 5807 5807 5807 5807 5807 5807 5807 5807 5807 5806 5806 5806 5805 5804 5803 5802 5802 5801 5800 5800 5799 5798 5796 5795 5793 5791 5789 5787 5785 5782 5780 5779 5777 5776 5775 5774 5773 5771 5770 5768 5767 5766 5765 5764 5763 5762 5761 5760 5759 5757 5756 5755 5753 5752 5751 5749 5748 5747 5746 5745 5743 5742 5740 5739 5737 5736 5734 5733 5732 5731 5729 5727 5726 5724 5723 5722 5720 5719 5718 5717 5716
5804 5805 5805 5805 5806 5806 5806 5806 5807 5807 5807 5807 5807 5807 5807 5806 5806 5806 5806 5805 5804 5803 5802 5801 5801 5800 5799 5798 5797 5796 5795 5793 5791 5789 5787 5785 5783 5781 5779 5778 5776 5775 5774 5773 5771 5769 5768 5767 5766 5765 5764 5763 5761 5760 5759 5758 5757 5755 5754 5753 5752 5750 5749 5747 5746 5745 5744 5742 5741 5739 5738 5736 5734 5734 5732 5731 5729 5727 5725 5724 5722 5721 5719 5718 5716 5715 5714 5713
5803 5804 5804 5805 5805 5806 5806 5806 5806 5806 5806 5806 5806 5806 5806 5806 5806 5806 5805 5805 5804 5803 5802 5801 5800 5800 5799 5798 5797 5796 5794 5793 5791 5789 5787 5785 5784 5782 5780 5778 5777 5775 5774 5773 5771 5769 5768 5767 5765 5764 5763 5762 5761 5760 5759 5757 5756 5755 5753 5752 5751 5750 5748 5747 5746 5744 5743 5742 5740 5738 5737 5735 5733 5732 5731 5729 5727 5726 5724 5722 5720 5719 5717 5715 5713 5712 5711 5710
5802 5803 5803 5804 5805 5805 5805 5805 5806 5806 5806 5806 5806 5806 5806 5806 5805 5805 5805 5804 5803 5802 5802 5801 5800 5799 5798 5797 5796 5795 5793 5792 5790 5789 5787 5785 5783 5782 5780 5779 5777 5776 5774 5772 5770 5769 5767 5766 5765 5763 5762 5761 5760 5759 5757 5756 5755 5754 5752 5751 5750 5749 5747 5746 5745 5743 5742 5741 5739 5737 5736 5734 5732 5731 5729 5727 5725 5724 5722 5719 5718 5717 5715 5713 5711 5709 5708 5706
5801 5802 5802 5803 5804 5804 5804 5805 5805 5805 5805 5805 5805 5805 5805 5805 5805 5804 5804 5803 5803 5802 5801 5800 5799 5798 5797 5796 5795 5794 5792 5791 5790 5788 5787 5785 5783 5781 5780 5778 5777 5775 5773 5771 5770 5769 5767 5766 5764 5763 5762 5760 5759 5758 5756 5755 5754 5752 5751 5750 5749 5748 5746 5745 5743 5742 5741 5739 5738 5736 5734 5732 5731 5730 5727 5725 5723 5722 5719 5717 5716 5715 5712 5710 5708 5706 5705 5703
5799 5800 5801 5802 5802 5803 5803 5804 5804 5804 5804 5804 5804 5804 5804 5804 5804 5803 5803 5803 5802 5801 5801 5800 5799 5798 5796 5795 5794 5793 5791 5790 5789 5787 5786 5784 5782 5781 5779 5778 5776 5774 5773 5771 5770 5768 5766 5765 5764 5762 5761 5760 5758 5757 5755 5754 5752 5751 5750 5749 5748 5746 5745 5743 5742 5740 5739 5737 5736 5734 5732 5730 5729 5727 5726 5724 5722 5720 5717 5715 5714 5712 5710 5708 5706 5704 5702 5700
5797 5798 5799 5800 5801 5802 5802 5802 5803 5803 5803 5803 5803 5803 5803 5803 5803 5802 5802 5802 5801 5800 5800 5799 5798 5797 5795 5794 5793 5792 5791 5789 5788 5787 5785 5784 5782 5780 5779 5778 5776 5774 5772 5770 5769 5767 5766 5764 5763 5761 5760 5759 5757 5755 5754 5752 5751 5750 5749 5747 5746 5744 5743 5741 5740 5738 5737 5735 5734 5732 5730 5728 5726 5725 5723 5722 5720 5718 5716 5714 5712 5710 5708 5706 5704 5702 5700 5698